Daytona Beach, FL

7:55 AM EDT on April 24, 2018 (GMT -0400)
Daytona Beach International

Weather History for KDAB - February, 2013

Change the Weather History Date:

Wednesday, February 20, 2013

  Actual Average Record
Temperature  
Mean Temperature 60 °F 61 °F  
Max Temperature 66 °F 71 °F 85 °F (1988)
Min Temperature 53 °F 51 °F 29 °F (1958)
Degree Days  
Heating Degree Days 5 5  
Month to date heating degree days 123 126  
Since 1 July heating degree days 459 643  
Cooling Degree Days 0 1  
Month to date cooling degree days 28 20  
Year to date cooling degree days 97 49  
Growing Degree Days 10 (Base 50)    
Moisture  
Dew Point 51 °F    
Average Humidity 69    
Maximum Humidity 89    
Minimum Humidity 48    
Precipitation  
Precipitation T in 0.09 in 0.74 in (1957)
Month to date precipitation 0.58 1.93  
Year to date precipitation 1.06 4.67  
Sea Level Pressure  
Sea Level Pressure 30.12 in    
Wind  
Wind Speed 6 mph (North)    
Max Wind Speed 15 mph    
Max Gust Speed 21 mph    
Visibility 10 miles    
Events Rain    
T = Trace of Precipitation, MM = Missing Value Source: NWS Daily Summary

Daily Weather History Graph

Daily Weather History Graph

Search for Another Location

Airport or City:

Astronomy

Feb. 20, 2013 Rise Set
Actual Time 6:58 AM EST 6:17 PM EST
Civil Twilight 6:34 AM EST 6:41 PM EST
Nautical Twilight 6:06 AM EST 7:09 PM EST
Astronomical Twilight 5:39 AM EST 7:37 PM EST
Moon 1:51 PM EST (2/20) 3:03 AM EST (2/20)
Length of Visible Light 12h 07m
Length of Day
11h 19m
Waxing Gibbous, 76% of the Moon is Illuminated
Feb 20
Waxing Gibbous
Feb 25
Full
Mar 4
Last Quarter
Mar 11
New
Mar 19
First Quarter

Hourly Weather History & Observations

Time (EST) Temp. Dew Point Humidity Pressure Visibility Wind Dir Wind Speed Gust Speed Precip Events Conditions
12:53 AM 62.1 °F 55.0 °F 78% 30.11 in 10.0 mi WNW 5.8 mph 17.3 mph 0.00 in   Mostly Cloudy
1:53 AM 62.1 °F 55.0 °F 78% 30.10 in 10.0 mi West 5.8 mph - N/A   Mostly Cloudy
2:10 AM 62.6 °F 55.4 °F 77% 30.10 in 9.0 mi West 4.6 mph - 0.00 in Rain Light Rain
2:26 AM 60.8 °F 55.4 °F 82% 30.10 in 10.0 mi West 5.8 mph - 0.00 in   Mostly Cloudy
2:53 AM 62.1 °F 55.9 °F 80% 30.10 in 10.0 mi NW 4.6 mph - 0.00 in   Mostly Cloudy
3:38 AM 62.6 °F 55.4 °F 77% 30.09 in 10.0 mi NNW 5.8 mph - N/A   Scattered Clouds
3:53 AM 62.1 °F 55.9 °F 80% 30.09 in 10.0 mi NNW 5.8 mph - N/A   Mostly Cloudy
4:22 AM 62.6 °F 57.2 °F 82% 30.09 in 10.0 mi North 5.8 mph - N/A   Mostly Cloudy
4:53 AM 60.1 °F 54.0 °F 80% 30.10 in 10.0 mi North 5.8 mph - N/A   Mostly Cloudy
5:53 AM 60.1 °F 51.1 °F 72% 30.12 in 10.0 mi Calm Calm - N/A   Mostly Cloudy
6:53 AM 59.0 °F 51.1 °F 75% 30.14 in 10.0 mi NNW 6.9 mph - N/A   Mostly Cloudy
7:10 AM 57.2 °F 51.8 °F 82% 30.15 in 10.0 mi North 6.9 mph - N/A   Mostly Cloudy
7:53 AM 59.0 °F 48.0 °F 67% 30.16 in 10.0 mi North 6.9 mph - N/A   Overcast
8:53 AM 61.0 °F 45.0 °F 56% 30.16 in 10.0 mi North 10.4 mph - N/A   Mostly Cloudy
9:53 AM 63.0 °F 46.0 °F 54% 30.16 in 10.0 mi North 10.4 mph - N/A   Scattered Clouds
10:53 AM 64.0 °F 46.0 °F 52% 30.17 in 10.0 mi NNE 11.5 mph - N/A   Scattered Clouds
11:53 AM 66.0 °F 46.9 °F 50% 30.15 in 10.0 mi NE 9.2 mph - N/A   Scattered Clouds
12:53 PM 64.9 °F 45.0 °F 48% 30.12 in 10.0 mi NE 11.5 mph 17.3 mph N/A   Scattered Clouds
1:53 PM 64.9 °F 46.0 °F 50% 30.09 in 10.0 mi NNE 9.2 mph - N/A   Scattered Clouds
2:53 PM 62.1 °F 46.9 °F 58% 30.09 in 10.0 mi NE 10.4 mph - N/A   Mostly Cloudy
3:53 PM 61.0 °F 46.9 °F 60% 30.08 in 10.0 mi NE 10.4 mph - N/A   Mostly Cloudy
4:53 PM 61.0 °F 48.0 °F 62% 30.10 in 10.0 mi NNE 8.1 mph - N/A   Overcast
5:53 PM 60.1 °F 48.0 °F 64% 30.09 in 10.0 mi ENE 6.9 mph - N/A   Overcast
6:53 PM 57.9 °F 48.9 °F 72% 30.10 in 10.0 mi ENE 5.8 mph - N/A   Mostly Cloudy
7:53 PM 59.0 °F 50.0 °F 72% 30.12 in 10.0 mi NNE 4.6 mph - N/A   Scattered Clouds
8:53 PM 60.1 °F 50.0 °F 69% 30.12 in 10.0 mi Calm Calm - N/A   Mostly Cloudy
9:53 PM 55.9 °F 50.0 °F 80% 30.13 in 10.0 mi Calm Calm - N/A   Scattered Clouds
10:53 PM 54.0 °F 50.0 °F 86% 30.11 in 10.0 mi Calm Calm - N/A   Scattered Clouds
11:53 PM 54.0 °F 50.0 °F 86% 30.10 in 10.0 mi Calm Calm - N/A   Scattered Clouds